www.pogodaiklimat.ru
ПОГОДА в Кливленде
Время
и дата
05:15 30.11
05:35 30.11
05:55 30.11
06:15 30.11
06:45 30.11
07:45 30.11
08:45 30.11
09:45 30.11
10:45 30.11
11:45 30.11
12:45 30.11
13:45 30.11
14:45 30.11
15:45 30.11
16:45 30.11
17:45 30.11
18:45 30.12
20:45 30.11
21:45 30.11
22:45 30.11
23:15 30.11
23:35 30.11
23:55 30.11
00:15 01.12
00:35 01.12
00:55 01.12
01:15 01.12
01:35 01.12
01:55 01.12
02:15 01.12
02:35 01.12
02:55 01.12
03:15 01.12
03:35 01.12
03:55 01.12
04:15 01.12
04:35 01.12
04:55 01.12
05:15 01.12
05:35 01.12
05:55 01.12
06:15 01.12
06:45 01.12
07:45 01.12
08:45 01.12
09:45 01.12
10:45 01.12
11:45 01.12
Ветер
(напр.,м/с)
Видим. Явления Облачность Т
(С)
Тd
(С)
f
(%)
Тe
(С)
Тes
(С)
Комфортность P
(гПа)
Po
(гПа)
Тmin
(С)
Tmax
(С)
R
(мм)
R24
(мм)
S
(см)
Ю 7
{11}
16 км 10/10 420 м +11.0 +9.1 88 +8 +8 970.5
Ю 5
{10}
16 км 10/10 360 м +11.1 +9.3 89 +8 +8 970.1
Ю 8
{10}
16 км 10/10 480 м +11.2 +9.4 89 +8 +8 970.1
Ю 6 16 км 10/8 660 m
[Ac]
+11.4 +9.6 89 +8 +8 969.5
Ю 5
{9}
16 км слабый дождь 10/5 600 m
[Ac Ns]
+12.0 +10.0 88 +9 +9 968.5
З 11
{19}
8 км дождь 10/10 300 m
[Ns]
+11.0 +9.0 87 +7 +7 970.1
З 14
{21}
6 км слабый дождь 10/10 240 m
[Ns]
+6.0 +4.0 87 -1 -1 972.1
З 12
{19}
16 км 10/10 450 м +4.0 +1.0 81 -3 -3 973.1
З 10
{17}
16 км 10/10 450 м +3.0 +1.0 87 -4 -4 974.7
З 11
{19}
16 км 10/10 660 м +3.0 -1.0 75 -4 -4 975.7
З 11
{16}
16 км 10/10 750 м +1.0 -3.0 75 -7 -7 977.4
З 11
{15}
16 км 10/10 750 м -1.0 -3.0 86 -10 -10 979.7
З 10
{14}
16 км 10/10 750 м -2.0 -6.0 74 -11 -11 981.3
З 9
{13}
16 км 10/10 810 м -2.0 -6.0 74 -10 -10 982.0
З 8
{13}
16 км 10/10 900 м -1.0 -6.0 69 -8 -8 983.3
З 7 16 км 10/10 1110 м -1.0 -6.0 69 -8 -8 984.2
З 11
{15}
16 км 10/10 990 м -1.0 -6.0 69 -10 -10 984.9
З 10
{16}
16 км слабый снег н/о -1.0 -7.0 64 -9 -9 985.9
З 10
{16}
16 км 10/10 810 м -2.0 -7.0 69 -11 -11 986.5
З 10
{17}
16 км 10/10 990 м -2.0 -7.0 69 -11 -11 986.9
16 км слабый снег 10/10 990 m
[Ns]
-1.6 -8.1 61 -2 -2 987.9
16 км слабый снег 10/10 990 m
[Ns]
-1.9 -8.5 61 -3 -3 988.2
16 км слабый снег 10/10 930 m
[Ns]
-2.0 -8.8 60 -3 -3 988.8
16 км слабый снег 10/10 930 m
[Ns]
-2.1 -8.9 60 -3 -3 988.8
16 км слабый снег 10/10 930 m
[Ns]
-2.2 -8.5 62 -3 -3 989.2
16 км 10/10 990 м -2.1 -8.3 62 -3 -3 989.2 -2.2 -0.6
16 км слабый снег 10/10 930 m
[Ns]
-2.0 -8.1 63 -3 -3 989.5
16 км слабый снег 10/10 930 m
[Ns]
-1.6 -7.8 63 -2 -2 989.5
16 км слабый снег 10/10 900 m
[Ns]
-2.0 -8.2 63 -3 -3 989.8
16 км слабый снег 10/10 840 m
[Ns]
-2.1 -8.3 62 -3 -3 990.5
16 км слабый снег 10/10 840 m
[Ns]
-2.2 -8.3 63 -3 -3 990.8
16 км слабый снег 10/10 840 m
[Ns]
-2.3 -8.3 63 -3 -3 991.1
16 км слабый снег 10/10 840 m
[Ns]
-2.4 -8.2 64 -3 -3 991.5
16 км слабый снег 10/10 840 m
[Ns]
-2.4 -8.3 64 -3 -3 991.8
16 км слабый снег 10/10 840 m
[Ns]
-2.4 -8.2 64 -3 -3 991.8
16 км 10/10 780 м -2.4 -8.3 64 -3 -3 992.4
16 км 10/10 780 м -2.5 -8.3 64 -3 -3 992.8
16 км 10/10 780 м -2.5 -8.2 65 -3 -3 993.1
16 км 10/10 780 м -2.5 -8.2 65 -3 -3 993.4
16 км 10/10 840 м -2.4 -8.1 65 -3 -3 993.8
16 км 10/10 780 м -2.4 -7.9 66 -3 -3 994.4
16 км 10/10 810 м -2.5 -8.0 66 -3 -3 995.1
З 7
{10}
16 км 10/10 750 м -3.0 -7.0 74 -11 -11 995.1
ЮЗ 6 16 км 10/10 660 м -3.0 -7.0 74 -10 -10 995.7
З 7
{10}
16 км 10/10 720 м -3.0 -7.0 74 -11 -11 997.0
ЮЗ 7
{10}
16 км 10/10 660 м -3.0 -7.0 74 -11 -11 998.3
ЮЗ 6 16 км 10/10 660 м -2.0 -7.0 69 -9 -9 999.0
З 6 16 км 10/10 660 м -1.0 -6.0 69 -8 -8 999.3
Местоположение метеостанции Cuyahoga County Airport: широта 41.5667 долгота -81.4833 высота над уровнем моря 268 м.
В архиве по умолчанию представлена погода в Кливленде за последние 1-2 суток. Обновление информации о фактической погоде в базе происходит ежечасно! Архивные данные за месяц целиком и за предыдущие месяцы Вы можете получить, выбрав интересующий диапазон дат из раскрывающегося списка и нажав кнопку "Ввод!".
Внимание! Архив погоды МЕТАР в базе сайта по станциям, не включенным в климатический монитор, хранится не более 60 дней. Нет смысла пытаться выбрать более раннюю дату.
*Определитесь, кто Вы:
Внимание! Время в таблицах - местное (без учета летнего времени). Для получения всемирного времени необходимо вычесть поправку, которая равна -5 ч.
Смотрите также архив погоды в соседних городах и на ближайших метеорологических станциях:
Партнеры нашего сайта:      
Пояснения к столбцам:
  • Ветер - указаны скорость ветра в м/с - средняя за 10 мин, порывы в срок и между сроками (в фигурных скобках) и направление, откуда дует ветер: С - северный,
  • СВ - северо-восточный, В - восточный, ЮВ - юго-восточный, Ю - южный, ЮЗ - юго-западный, З - западный, СЗ - северо-западный.
  • Видимость - горизонтальная дальность видимости в метрах или километрах. При видимости от 1 до 10 км при отсутствии осадков обычно наблюдается дымка, при ухудшении видимости до 1 км и менее - туман. В сухую погоду видимость может ухудшаться дымом, пылью или мглою.
  • Явления - указаны атмосферные явления, наблюдавшиеся в срок или в последний час перед сроком; фигурными скобками обозначены явления, наблюдавшиеся между сроками (за 1-3 часа до срока); квадратными скобками обозначены град или гололедные отложения с указанием их диаметра в мм.
  • Облачность - указаны через наклонную черту общая и нижняя облачность в баллах и высота нижней границы облаков в метрах; квадратными скобками обозначены формы облаков: Ci - перистые, Cs - перисто-слоистые, Cc - перисто-кучевые, Ac - высококучевые, As - высокослоистые, Sc - слоисто-кучевые, Ns - слоисто-дождевые, Cu - кучевые, Cb - кучево-дождевые. Подробнее классификацию облаков см. в Атласе облаков (PDF).
  • T - Температура воздуха - температура, измеренная на высоте 2 м над землей.
  • Td - Температура точки росы - температура, при понижении до которой содержащийся в воздухе водяной пар достигнет насыщения.
  • f - Относительная влажность воздуха - влажноcть воздуха, измеренная на высоте 2 м над землей.
  • Te - Эффективная температура - температура, которую ощущает одетый по сезону человек в тени. Характеристика душности погоды. При расчете учитывается влияние влажности воздуха и скорости ветра на теплоощущения человека.
  • Tes - Эффективная температура на солнце - температура, которую ощущает человек, с поправкой на солнечный нагрев. Характеристика знойности погоды. Зависит от высоты солнца над горизонтом, облачности и скорости ветра. Ночью, в пасмурную погоду, а также при ветре 12 м/с и более поправка равна нулю.
  • P - Атмосферное давление - приведенное к уровню моря атмосферное давление.
  • Po - Атмосферное давление - измеренное на уровне метеостанции атмосферное давление.
  • Tmin - Минимальная температура - минимум температуры воздуха на высоте 2 м над землей.
  • Tmax - Максимальная температура - максимум температуры воздуха на высоте 2 м над землей.
  • R - Количество осадков - Количество выпавших осадков за период времени, мм. При наведении курсора мыши на число - период времени, за который выпало указанное количество осадков.
  • R24 - Количество осадков - Количество выпавших осадков за 24 часа, мм.
  • S - Снежный покров - Высота снежного покрова, см. При наведении курсора мыши на число - состояние снежного покрова и степень покрытия местности в баллах.